Current weather by "City, St" or "zip code"  
 

Current Conditions: North Adams Harriman-and-West Airport, MA

Fair


64.0 F

Last Updated on May 21 2022, 5:52 am EDT
Humidity: 87%
Wind Speed: N 0.0 mph
Barometer 29.94 in
Dewpoint: 60.1 F
Visibility: 10.00 mi
Precip: --
Heat Index: NA
Wind Chill: NA
Current conditions at:

North Adams Harriman-and-West Airport, MA (KAQW)

Lat: 42.69731 Lon: 73.16955

Local Radar Image active severe weather and emergency alerts image image weather storm and storm spotter reports image weather observation monitoring service image
Local
Radar
Active
Alerts
Storm Reports Obs
Monitoring

Sign-up For Email & Text Message Weather Alert Notification Services



Advertise Here

Observation History for North Adams Harriman-and-West Airport, MA


Time Wind
(mph)
Vis
(mi)
Weather Precip (in) Temperature (F) Relative
Humidity
Wind
Chill
(F)
Heat
Index
(F)
Pressure
Air Dwpt altimeter
(in)
sea level
(mb)
Rmks
5:52 am EDT N 0.0 10.00 Fair -- 64.0 60.1 87% NA NA 29.94 1013.7
4:52 am EDT SE 3.5 10.00 Fair -- 64.0 60.1 87% NA NA 29.93 1013.1
3:52 am EDT N 0.0 10.00 Mostly Cloudy -- 65.0 60.1 84% NA NA 29.92 1013.0
2:52 am EDT SE 4.6 10.00 Mostly Cloudy -- 65.0 59.0 81% NA NA 29.93 1013.2
1:52 am EDT 4.6 10.00 Fair -- 67.0 60.1 79% NA NA 29.94 1013.7
12:52 am EDT E 4.6 10.00 Mostly Cloudy -- 68.0 60.1 76% NA NA 29.95 1014.0
11:52 pm EDT 4.6 10.00 Overcast -- 69.0 60.1 73% NA NA 29.96 1014.3
10:52 pm EDT E 6.9 G 21.9 10.00 Overcast -- 70.0 59.0 68% NA NA 29.95 1014.0
9:52 pm EDT E 11.5 10.00 Overcast -- 71.0 57.9 63% NA NA 29.95 1014.0
8:52 pm EDT E 5.8 10.00 Overcast -- 72.0 57.9 61% NA NA 29.94 1013.8
7:52 pm EDT 10.00 Fair -- 75.0 55.9 52% NA NA 29.91 1012.7
5:52 pm EDT SW 8.1 G 20.7 10.00 Mostly Cloudy -- 79.0 55.0 44% NA NA 29.91 1012.7
4:52 pm EDT 5.8 G 17.3 10.00 Mostly Cloudy -- 81.0 53.1 38% NA 80 29.90 1012.2
3:52 pm EDT 6.9 G 23.0 10.00 A Few Clouds -- 82.0 55.0 40% NA 81 29.89 1012.2
2:52 pm EDT SW 13.8 G 20.7 10.00 Mostly Cloudy -- 82.0 55.0 40% NA 81 29.92 1012.9
11:52 am EDT 3.5 10.00 Fair -- 77.0 51.1 40% NA NA 29.95 1014.0
10:52 am EDT E 5.8 10.00 Mostly Cloudy -- 74.0 53.1 48% NA NA 29.96 1014.4
9:52 am EDT S 4.6 10.00 Fair -- 66.0 53.1 63% NA NA 29.96 1014.7
8:52 am EDT E 8.1 10.00 Mostly Cloudy -- 58.0 50.0 75% 56 NA 29.98 1015.3
7:52 am EDT N 0.0 10.00 Mostly Cloudy -- 54.0 48.9 83% NA NA 29.95 1014.4
5:52 am EDT E 3.5 0.25 Fog -- 47.0 44.1 90% NA NA 29.91 1013.1

Regional Weather Observation


North Adams Harriman-and-West Airport, MA (KAQW)

Fair
64.0 F

Albany International Airport, NY (KALB)

Overcast
66.0 F

Schenectady Airport, NY (KSCH)

Mostly Cloudy
68.0 F

Pittsfield Municipal Airport, MA (KPSF)

Overcast
63.0 F

Glens Falls, Floyd Bennett Memorial Airport, NY (KGFL)

Overcast
65.0 F

Rutland-Southern Vermont Regional Airport, VT (KRUT)

Fair
64.0 F

Advertise Here


Advertise Here